Wind_Speed
21 22 22 22 21 21 21 22 23 22 21 20 20 21 21 22 21 21 21 21 21 22 23 24 24 24 24 25 26 26 27 27 27 28 29 29 29 30 30 30 31 32 32 32
22 22 23 23 21 20 20 21 22 22 20 20 21 21 21 22 21 21 20 21 22 22 22 22 23 24 24 25 25 25 26 26 26 27 28 29 29 29 30 30 31 32 32 32
22 22 23 23 21 21 21 20 21 21 20 20 20 20 21 21 20 20 21 22 22 22 22 22 22 23 23 24 25 25 25 25 25 25 26 27 28 29 30 30 31 32 32 32
24 23 23 22 20 20 21 20 20 19 19 19 20 20 21 21 21 21 22 22 22 22 22 22 22 22 23 23 24 24 25 24 23 24 25 27 28 28 29 30 30 30 30 31
24 24 22 20 20 21 21 20 19 19 19 19 19 19 20 20 21 21 21 21 22 22 22 23 23 23 23 24 24 24 24 24 24 24 25 26 27 27 28 28 29 29 29 29
24 24 22 20 20 20 21 20 19 19 19 19 19 19 19 20 21 22 22 22 21 21 22 23 24 23 23 24 24 24 24 24 24 24 25 26 27 27 27 27 27 28 28 27
24 24 22 21 21 21 22 21 21 20 20 19 19 19 20 21 22 22 22 22 22 22 22 23 24 24 24 24 24 24 24 24 24 24 25 24 25 25 25 25 26 26 27 26
24 24 23 22 22 22 22 21 21 21 20 20 20 20 21 22 22 23 23 23 23 22 22 23 23 23 23 23 23 23 24 24 24 25 24 24 24 24 23 23 24 25 25 25
24 24 24 23 23 23 22 22 22 22 21 21 21 21 22 23 23 24 24 24 23 23 22 22 22 22 23 23 23 23 23 23 23 24 25 24 23 23 22 23 23 24 24 24
24 23 24 24 23 23 22 22 22 22 22 22 22 23 23 23 24 24 24 24 24 23 23 23 23 23 23 23 23 24 24 24 23 24 24 24 24 23 23 23 23 23 23 22
25 24 24 24 24 24 24 23 23 23 23 23 24 24 24 23 23 23 24 24 24 23 23 23 23 23 23 24 24 23 23 22 22 23 23 23 23 22 22 22 22 22 22 22
26 25 25 25 25 25 25 24 24 24 24 24 25 25 25 24 23 23 23 24 23 23 23 23 23 23 23 23 23 23 23 22 22 22 22 21 20 20 20 20 20 20 20 21
24 24 24 25 25 25 25 24 25 25 25 25 26 25 25 24 24 24 23 23 23 22 23 23 23 23 23 23 23 23 22 21 22 22 21 20 19 19 19 19 19 18 18 19
23 24 23 23 23 23 23 24 25 25 26 25 25 25 24 24 24 24 23 22 22 22 23 23 23 23 23 23 23 22 21 21 21 20 20 19 19 18 18 18 18 18 18 19
23 24 23 22 22 22 22 22 23 23 24 24 24 24 23 23 23 23 23 22 23 22 22 22 23 23 22 22 22 22 21 20 20 20 19 19 18 18 17 18 19 19 18 18
23 23 22 22 22 21 21 22 22 22 23 23 23 23 23 23 23 23 22 23 22 22 21 22 22 22 22 23 23 22 21 20 20 19 19 18 18 18 18 19 19 19 18 17
22 22 22 22 22 21 21 21 22 22 23 23 23 23 23 23 23 23 23 23 23 22 22 22 22 22 22 22 22 21 20 19 18 18 17 17 18 18 18 18 18 18 17 17
21 21 21 21 22 22 22 22 23 22 21 21 22 23 23 23 23 23 23 23 23 23 23 23 22 21 21 21 21 20 18 18 17 17 17 16 16 17 17 17 17 17 17 17
21 21 21 21 21 20 21 22 22 22 21 21 21 22 22 22 21 21 22 22 23 23 22 22 21 21 21 20 20 19 19 18 18 18 17 17 17 17 17 17 16 16 16 16
22 22 22 22 21 22 22 22 22 22 22 22 22 22 22 21 20 20 21 22 22 21 21 20 21 20 20 20 19 19 19 19 19 18 18 17 17 17 17 16 15 15 15 15
23 23 23 22 22 23 23 23 23 22 22 22 22 22 21 21 20 20 20 20 20 20 19 19 20 19 19 18 18 18 18 18 19 19 18 17 16 16 16 15 15 15 15 15
23 23 23 23 23 23 23 23 23 22 22 22 22 22 22 21 20 20 20 20 19 20 20 20 20 19 19 18 18 18 18 18 19 19 19 17 17 16 16 16 15 15 15 15
24 25 24 24 24 24 23 23 23 23 23 23 23 22 21 21 20 19 19 20 20 20 20 20 20 20 19 19 18 18 18 18 18 18 18 18 17 17 16 16 16 16 16 16
25 25 25 25 25 24 24 24 24 24 24 23 23 23 22 21 20 20 20 20 20 21 21 21 20 20 20 19 19 19 19 19 19 18 18 18 18 18 18 18 18 18 17 17
25 26 26 26 26 25 25 24 25 25 24 24 23 23 22 22 21 21 21 21 21 21 21 20 20 20 20 20 20 20 20 20 20 19 20 20 19 19 19 18 18 18 18 17
25 26 26 27 26 26 26 25 24 24 24 24 23 23 23 23 23 23 23 22 22 21 21 21 21 21 21 21 21 20 20 20 20 20 20 20 20 19 19 19 18 18 19 18
26 26 26 27 27 26 26 25 24 24 24 23 23 23 23 23 23 23 22 22 22 21 22 22 22 22 21 21 21 20 20 20 21 21 21 21 20 20 20 20 20 19 19 18
Wind_Direction
291 293 294 295 293 289 290 289 286 288 288 286 282 281 279 279 277 275 275 275 275 276 277 279 280 280 281 281 280 280 277 275 275 276 277 277 276 276 274 273 271 271 271 271
289 291 291 293 292 289 291 292 289 289 290 284 281 281 282 282 279 277 278 279 280 281 282 282 282 282 283 283 282 282 282 278 277 277 277 277 277 276 274 272 272 272 271 270
287 291 290 292 293 291 292 293 293 293 292 288 283 281 281 280 277 278 278 280 281 282 283 284 283 282 283 283 283 283 283 281 279 278 278 278 277 276 275 274 274 273 271 269
286 290 292 295 293 294 294 295 295 296 293 288 285 282 279 278 277 279 280 280 282 282 281 282 283 283 284 285 285 284 283 279 278 279 279 278 279 278 276 275 274 274 272 269
287 290 290 293 296 297 297 295 297 297 294 288 284 282 281 279 279 282 282 282 282 280 281 282 283 284 286 286 288 287 284 281 280 281 282 282 281 279 277 276 274 274 275 270
285 288 291 295 299 298 296 295 297 298 294 289 284 282 283 282 283 282 281 281 281 280 280 282 282 284 286 288 289 288 287 283 283 285 285 284 283 282 279 278 276 275 275 273
284 285 288 295 298 297 295 297 295 295 296 294 289 287 284 283 283 283 282 281 280 281 282 282 283 285 287 288 289 290 287 285 285 286 286 286 286 285 283 279 278 276 275 275
284 285 289 291 292 293 295 295 295 296 295 295 293 289 287 286 283 283 282 282 282 282 283 283 283 284 287 289 290 291 289 287 287 286 286 287 286 287 285 282 280 279 277 276
282 284 286 287 289 290 291 293 294 295 295 295 295 294 290 287 286 284 283 283 283 284 284 284 285 286 289 290 289 290 289 289 288 287 286 286 286 287 285 284 284 282 279 276
280 283 285 284 286 288 290 291 292 293 292 293 294 294 293 290 287 285 285 284 283 284 284 284 285 289 289 289 290 291 290 290 290 288 287 286 285 285 283 282 283 283 280 275
279 281 282 282 283 284 287 289 289 289 290 290 290 292 292 291 288 286 285 283 282 281 283 285 285 288 291 293 293 293 290 289 290 290 289 288 287 285 283 283 283 281 278 274
278 280 281 281 282 282 284 286 288 288 288 288 288 288 289 289 287 286 285 284 284 283 283 285 284 286 289 290 291 291 289 289 290 291 290 290 289 286 284 285 283 280 278 275
278 279 280 281 282 283 284 285 287 288 288 288 287 286 286 287 287 287 288 288 287 284 284 284 285 288 289 288 291 292 291 290 290 289 289 291 291 287 283 284 285 282 279 279
276 278 279 280 281 283 283 285 286 288 288 288 288 286 285 287 288 289 289 287 286 285 285 283 285 287 287 287 289 290 290 289 289 289 290 291 290 286 283 283 284 284 281 280
274 275 277 279 281 283 283 285 286 287 288 289 289 288 287 287 288 288 287 286 285 285 285 285 284 284 284 286 288 289 288 288 288 291 290 289 286 284 284 287 287 285 282 281
273 273 275 278 280 283 285 286 286 287 287 288 289 289 288 287 287 286 284 284 284 285 285 286 285 284 283 284 287 289 289 289 289 289 288 287 287 286 286 288 289 287 284 283
272 272 274 276 278 281 283 284 285 285 285 286 288 288 287 286 286 285 284 284 284 285 286 287 287 285 284 285 286 287 286 286 289 289 288 289 290 290 289 289 289 288 286 285
271 272 273 275 278 281 282 284 286 285 285 286 288 290 289 286 285 285 286 287 286 286 286 285 285 284 286 286 286 284 282 281 284 287 287 289 290 289 288 288 288 288 286 285
270 271 274 277 279 281 282 285 285 284 284 287 290 291 290 288 286 285 285 286 285 285 284 282 282 282 284 285 285 282 281 282 285 285 286 288 290 289 286 286 287 288 289 287
269 271 274 277 279 281 283 284 284 283 284 286 289 291 289 286 285 284 283 285 285 284 282 281 282 283 283 284 282 279 278 279 282 284 285 288 291 291 289 286 286 288 289 286
270 272 274 276 278 280 282 283 282 282 284 287 290 290 289 286 284 284 285 285 284 284 284 283 282 283 284 283 281 281 280 281 282 284 285 287 289 291 291 289 288 288 288 287
271 273 274 276 277 279 281 282 282 282 283 286 289 291 290 286 283 283 284 284 284 285 285 285 284 283 283 282 283 283 283 283 284 285 284 285 287 289 290 290 289 287 287 288
272 274 274 275 276 278 280 281 282 282 283 285 288 290 290 287 283 282 284 285 285 285 286 285 283 281 281 281 283 284 284 285 286 286 285 285 286 286 286 287 288 287 288 288
271 273 274 274 275 277 279 280 281 281 282 283 286 288 289 287 282 282 283 285 286 285 285 285 281 278 278 279 280 282 283 285 285 285 285 285 285 284 284 285 286 286 286 286
272 273 274 275 276 276 277 279 280 280 281 281 283 286 287 286 284 281 281 284 286 286 285 284 280 278 278 278 280 282 283 284 285 285 285 284 283 282 283 284 285 283 284 284
274 275 276 276 276 276 275 276 279 280 280 281 282 283 284 285 284 282 281 283 285 285 283 283 281 279 278 278 280 281 281 282 284 286 286 284 283 281 280 281 281 280 281 281
274 276 277 277 275 274 273 274 277 278 279 280 281 282 283 283 283 282 281 282 283 283 283 282 281 279 278 278 277 277 279 281 283 285 285 284 282 280 278 278 277 276 278 277
Height
5622 5620 5618 5616 5614 5611 5608 5607 5605 5605 5603 5602 5600 5598 5597 5596 5595 5594 5593 5592 5591 5590 5589 5588 5587 5586 5584 5583 5582 5580 5579 5578 5577 5576 5575 5573 5572 5571 5570 5569 5568 5568 5568 5568
5616 5614 5612 5610 5608 5605 5603 5601 5599 5598 5597 5595 5594 5593 5591 5590 5589 5588 5587 5586 5585 5584 5583 5581 5580 5579 5577 5576 5574 5572 5571 5569 5568 5567 5566 5564 5563 5562 5561 5560 5559 5559 5559 5559
5609 5608 5605 5604 5603 5600 5598 5596 5594 5592 5592 5589 5588 5587 5585 5584 5584 5583 5582 5580 5579 5578 5576 5575 5573 5572 5571 5569 5567 5565 5563 5562 5560 5559 5557 5556 5555 5554 5552 5551 5551 5550 5549 5549
5602 5601 5599 5601 5598 5595 5593 5591 5589 5586 5585 5583 5582 5580 5579 5578 5577 5576 5575 5574 5572 5571 5569 5568 5567 5565 5564 5562 5560 5558 5556 5554 5552 5551 5549 5548 5547 5545 5544 5542 5541 5541 5540 5540
5596 5594 5593 5594 5592 5589 5587 5586 5584 5581 5579 5577 5576 5575 5574 5573 5571 5570 5569 5567 5566 5564 5563 5561 5560 5558 5556 5554 5552 5550 5548 5547 5545 5543 5541 5540 5538 5536 5535 5533 5533 5532 5531 5531
5589 5587 5587 5589 5587 5583 5582 5580 5579 5576 5573 5571 5570 5570 5570 5567 5565 5564 5562 5560 5559 5557 5556 5554 5552 5551 5549 5547 5545 5543 5540 5539 5537 5535 5534 5532 5530 5527 5526 5525 5524 5523 5523 5522
5583 5580 5581 5583 5580 5577 5577 5576 5573 5570 5568 5566 5564 5563 5562 5560 5558 5557 5555 5553 5552 5550 5549 5547 5545 5543 5542 5540 5538 5535 5533 5531 5529 5527 5526 5524 5521 5519 5518 5517 5516 5515 5515 5514
5576 5575 5577 5576 5573 5572 5570 5568 5566 5564 5562 5560 5559 5557 5555 5554 5552 5550 5548 5547 5545 5543 5541 5539 5538 5536 5534 5532 5530 5528 5525 5523 5521 5519 5518 5516 5514 5512 5510 5509 5508 5507 5507 5506
5571 5572 5570 5568 5566 5565 5563 5561 5559 5557 5556 5554 5552 5551 5549 5547 5545 5543 5541 5540 5538 5536 5535 5533 5531 5529 5527 5525 5523 5521 5519 5516 5514 5512 5510 5508 5506 5505 5503 5502 5501 5500 5499 5499
5563 5563 5562 5561 5559 5557 5556 5554 5552 5551 5549 5547 5546 5544 5542 5540 5538 5536 5534 5532 5531 5529 5528 5526 5524 5522 5520 5518 5516 5514 5512 5510 5507 5505 5503 5501 5499 5497 5496 5495 5494 5493 5492 5491
5555 5555 5554 5554 5552 5550 5549 5547 5546 5544 5542 5540 5538 5537 5535 5533 5531 5529 5527 5525 5523 5522 5520 5519 5517 5516 5514 5512 5509 5507 5505 5503 5501 5498 5496 5494 5492 5490 5489 5488 5487 5486 5485 5485
5547 5548 5547 5546 5544 5543 5542 5540 5538 5536 5535 5533 5531 5529 5528 5526 5524 5522 5520 5518 5516 5515 5513 5512 5510 5508 5507 5505 5503 5501 5499 5496 5494 5492 5490 5487 5485 5483 5482 5481 5480 5479 5478 5478
5539 5538 5537 5537 5536 5535 5533 5532 5530 5528 5527 5525 5524 5522 5520 5518 5517 5515 5513 5511 5509 5508 5506 5505 5503 5501 5500 5498 5496 5494 5492 5490 5488 5486 5483 5481 5479 5478 5476 5475 5474 5473 5472 5471
5531 5530 5529 5528 5528 5527 5525 5524 5522 5521 5519 5517 5516 5514 5513 5511 5509 5508 5506 5504 5502 5501 5499 5498 5496 5495 5493 5491 5490 5488 5485 5483 5481 5479 5478 5476 5474 5472 5471 5469 5468 5467 5466 5465
5523 5522 5521 5520 5520 5518 5517 5516 5515 5513 5512 5510 5509 5507 5505 5504 5502 5501 5499 5497 5496 5494 5493 5491 5490 5488 5487 5485 5483 5482 5480 5478 5475 5473 5471 5470 5468 5466 5465 5464 5463 5461 5460 5459
5514 5513 5513 5512 5511 5510 5509 5508 5507 5506 5504 5503 5501 5500 5498 5497 5495 5494 5492 5490 5489 5488 5486 5485 5483 5482 5480 5478 5477 5475 5473 5472 5470 5468 5466 5464 5463 5461 5460 5458 5457 5455 5454 5453
5506 5505 5505 5504 5504 5503 5502 5501 5500 5498 5497 5496 5495 5493 5491 5490 5488 5487 5485 5483 5482 5481 5480 5478 5477 5475 5474 5472 5471 5469 5467 5466 5464 5462 5460 5459 5457 5456 5454 5452 5451 5450 5449 5447
5498 5498 5497 5497 5496 5495 5494 5493 5492 5491 5490 5489 5487 5486 5484 5483 5481 5479 5478 5477 5475 5474 5473 5471 5470 5469 5467 5466 5464 5463 5462 5461 5459 5457 5455 5453 5452 5450 5448 5447 5446 5444 5443 5441
5491 5490 5490 5489 5488 5488 5487 5486 5485 5484 5483 5482 5480 5479 5477 5476 5474 5473 5471 5470 5469 5468 5466 5465 5464 5463 5461 5460 5458 5457 5456 5455 5454 5452 5450 5449 5447 5445 5443 5442 5440 5439 5437 5436
5483 5483 5482 5482 5482 5481 5480 5479 5478 5477 5476 5475 5473 5472 5470 5468 5467 5466 5465 5464 5462 5461 5460 5458 5457 5456 5455 5454 5452 5451 5450 5449 5448 5446 5445 5443 5442 5440 5438 5437 5435 5434 5433 5431
5476 5475 5475 5475 5474 5473 5472 5471 5470 5469 5469 5468 5466 5465 5463 5462 5460 5459 5458 5457 5456 5454 5453 5452 5451 5450 5448 5447 5446 5445 5444 5443 5442 5441 5439 5438 5436 5435 5433 5432 5431 5429 5428 5427
5468 5468 5468 5467 5467 5466 5465 5464 5463 5462 5461 5460 5459 5458 5456 5455 5454 5453 5451 5451 5449 5448 5447 5445 5444 5443 5442 5441 5440 5439 5438 5437 5436 5435 5433 5432 5431 5430 5429 5427 5426 5425 5424 5423
5460 5460 5460 5459 5459 5458 5457 5456 5455 5455 5454 5453 5451 5450 5449 5448 5447 5446 5445 5444 5442 5441 5440 5438 5437 5437 5436 5435 5434 5434 5432 5431 5430 5429 5428 5427 5426 5425 5424 5423 5421 5420 5419 5418
5452 5451 5451 5451 5450 5450 5449 5449 5448 5447 5446 5445 5444 5443 5442 5441 5440 5439 5438 5437 5435 5434 5433 5431 5430 5430 5429 5429 5428 5427 5426 5425 5424 5423 5422 5421 5420 5419 5418 5417 5416 5415 5414 5413
5443 5443 5443 5442 5442 5441 5441 5440 5439 5439 5438 5437 5436 5435 5434 5433 5432 5431 5430 5429 5428 5427 5425 5424 5423 5423 5422 5422 5421 5421 5420 5418 5417 5416 5415 5414 5413 5413 5412 5411 5410 5409 5408 5407
5435 5434 5434 5433 5433 5432 5432 5431 5431 5430 5429 5429 5428 5427 5426 5425 5424 5423 5422 5421 5420 5419 5418 5417 5416 5416 5415 5415 5414 5413 5413 5412 5411 5410 5408 5407 5406 5406 5405 5404 5403 5402 5402 5401
5426 5425 5425 5424 5424 5423 5423 5423 5422 5422 5421 5420 5420 5419 5418 5417 5416 5415 5414 5413 5412 5411 5410 5409 5408 5408 5407 5407 5406 5406 5405 5405 5404 5403 5401 5400 5399 5399 5398 5397 5397 5396 5395 5395